AirNav   Air Wisconsin Airman Trainee
 
 733 users online  

87TE Rose Field Airport
Needville, Texas, USA

GOING TO NEEDVILLE?


FAA INFORMATION EFFECTIVE 28 FEBRUARY 2019

Location

FAA Identifier: 87TE
Lat/Long: 29-27-06.8710N / 095-51-55.8300W
29-27.114517N / 095-51.930500W
29.4519086 / -95.8655083
(estimated)
Elevation: 100 ft. / 30 m (estimated)
Variation: 06E (1985)
From city: 3 miles NW of NEEDVILLE, TX
Time zone: UTC -6 (UTC -5 during Daylight Saving Time)
Zip code: 77461

Airport Operations

Airport use: Private use. Permission required prior to landing
Activation date: 02/1980
Control tower: no
ARTCC: HOUSTON CENTER
FSS: MONTGOMERY COUNTY FLIGHT SERVICE STATION
FOR FP FILING CALL CXO FSS 1-800-833-5602.
Attendance: UNATNDD
Wind indicator: no
Segmented circle: no
Landing fee: yes

Airport Communications

WX ASOS at SGR (15 nm NE): 118.125 (281-242-7605)
WX AWOS-3 at ARM (19 nm SW): 118.475 (979-532-2791)

Nearby radio navigation aids

VOR radial/distance  VOR name  Freq  Var
ELAr110/26.7EAGLE LAKE VOR/DME116.4008E
HUBr243/33.1HOBBY VOR/DME117.1005E

 
NDB name  Hdg/Dist  Freq  Var  ID
WHARTON049/19.124503EARM .- .-. --

Airport Services

Runway Information

Runway 13/31

Dimensions: 2100 x 80 ft. / 640 x 24 m
Surface: turf
RUNWAY 13  RUNWAY 31
Traffic pattern: leftleft
Obstructions: 30 ft. pole, 575 ft. from runwaynone

Airport Ownership and Management from official FAA records

Ownership: Privately-owned
Owner: STEPHANIE VIDRINE SERGEY PROLAGAYEV
4613 RHODA LANE
NEEDVILLE, TX 77461
Phone 337-278-7992
Manager: STEPHANIE VIDRINE SERGEY PROLAGAYEV
4613 RHODA LANE
NEEDVILLE, TX 77461
Phone 337-278-7992

Airport Operational Statistics

Aircraft based on the field: 2
Single engine airplanes: 2
    

Instrument Procedures

There are no published instrument procedures at 87TE.

Some nearby airports with instrument procedures:

KSGR - Sugar Land Regional Airport (15 nm NE)
KARM - Wharton Regional Airport (19 nm SW)
KAXH - Houston Southwest Airport (21 nm E)
KTME - Houston Executive Airport (21 nm N)
KIWS - West Houston Airport (24 nm NE)
 
Loc | Ops | Rwys | IFR | FBO | Links
Com | Nav | Svcs | Stats | Notes
Area around 87TE (Rose Field Airport)
 
Road maps at: MapQuest Bing Google
 
Aerial photo
WARNING: Photo may not be current or correct
Aerial photo of 87TE (Rose Field Airport)
Taken in December 2008

Do you have a better or more recent aerial photo of Rose Field Airport that you would like to share? If so, please send us your photo.

 
Sectional chart

 
Airport distance calculator
Flying to Rose Field Airport? Find the distance to fly.

From to 87TE

Sunrise and sunset
Times for 24-Mar-2019
 Local
(UTC-5)
 Zulu
(UTC)
Morning civil twilight07:0012:00
Sunrise07:2412:24
Sunset19:3600:36
Evening civil twilight20:0001:00

Current date and time
Zulu (UTC)  25-Mar-2019 03:00:58
Local (UTC-5)  24-Mar-2019 22:00:58
 
METAR
KSGR 
15nm NE 
250253Z AUTO 16005KT 10SM FEW029 20/18 A3006 RMK AO2 SLP179 T02000183 53009
KARM 
19nm SW 
250235Z AUTO 14006KT 10SM OVC048 20/18 A3005 RMK AO2 T02010181
KAXH 
21nm E 
250235Z AUTO 16004KT 10SM SCT050 19/19 A3006 RMK AO2 T01930185
KTME 
21nm N 
250255Z AUTO 17005KT 9SM BKN028 BKN048 20/19 A3007 RMK AO2
KELA 
25nm W 
250235Z AUTO 18003KT 10SM CLR 20/18 A3005 RMK AO2 T01960180
KBYY 
29nm S 
250235Z AUTO 15005KT 10SM OVC048 21/20 A3006 RMK AO2 T02100200
KLBX 
29nm SE 
250253Z AUTO 17009KT 10SM SCT050 20/19 A3007 RMK AO2 SLP181 T02000189 53005
TAF
KSGR 
15nm NE 
250200Z 2502/2524 17007KT P6SM FEW020 SCT030 TEMPO 2502/2506 SCT007 BKN015 FM250600 17005KT 6SM BR BKN007 OVC015 FM251000 18004KT 4SM BR OVC004 FM251500 24006KT 6SM BR OVC007 FM251700 28008KT P6SM OVC015 FM252000 32007KT P6SM VCSH SCT015 BKN025
NOTAMs
Click for the latest NOTAMs
NOTAMs are issued by the DoD/FAA and will open in a separate window not controlled by AirNav.

 

 
 

Would you like to see your business listed on this page?

 If your business provides an interesting product or service to pilots, flight crews, aircraft, or users of the Rose Field Airport, you should consider listing it here.  To start the listing process, click on the button below
 
Add a business
 

Other Pages about Rose Field Airport

Update a link
 
Copyright © AirNav, LLC. All rights reserved. Privacy Policy  Contact